カタログに戻る

INTELSAT 804

運用中通信GEO
NORAD 25110·PAYLOAD· XX

打ち上げ Dec 21, 1997 から Guiana Space Centre

Loading…

TLE

最新Source: Space-Track

元期: Sep 14, 2026, 14:00 UTC

1 25110U 97083A   26257.58350339 -.00000103  00000-0  00000-0 0  9999
2 25110  13.2416  16.9373 0006573  29.0375 321.4947  1.00271319105228

AllMySatでINTELSAT 804をリアルタイム追跡

Download on the App Store